This is the latest recevied weather packets stored in our database for station/object KB3UQE. If no packets are shown the sender has not sent any weather packets the latest 10 day(s).
| Time | Temp. | Humidity | Pressure | Rain* | Wind** | Luminosity | Snow |
|---|---|---|---|---|---|---|---|
| 1777382376 | 17.78° C | 48% | 1020 hPa | - | - | - | - |
| 1777381981 | 17.78° C | 48% | 1020 hPa | - | - | - | - |
| 1777381296 | 18.89° C | 46% | 1020.2 hPa | - | - | - | - |
| 1777380900 | 18.89° C | 46% | 1020.2 hPa | - | - | - | - |
| 1777380216 | 17.78° C | 46% | 1020.4 hPa | - | - | - | - |
| 1777379820 | 17.78° C | 46% | 1020.4 hPa | - | - | - | - |
| 1777379136 | 15.56° C | 46% | 1020.6 hPa | - | - | - | - |
| 1777378740 | 15.56° C | 46% | 1020.6 hPa | - | - | - | - |
| 1777378055 | 13.33° C | 48% | 1020.6 hPa | - | - | - | - |
| 1777377659 | 13.33° C | 48% | 1020.6 hPa | - | - | - | - |
| 1777376975 | 11.11° C | 49% | 1020.5 hPa | - | - | - | - |
| 1777376579 | 11.11° C | 49% | 1020.5 hPa | - | - | - | - |
| 1777375895 | 9.44° C | 50% | 1020.5 hPa | - | - | - | - |
| 1777375499 | 9.44° C | 50% | 1020.5 hPa | - | - | - | - |
| 1777374815 | 8.33° C | 51% | 1020.6 hPa | - | - | - | - |
| 1777374419 | 8.33° C | 51% | 1020.6 hPa | - | - | - | - |
| 1777373734 | 7.78° C | 50% | 1020.6 hPa | - | - | - | - |
| 1777373338 | 7.78° C | 50% | 1020.6 hPa | - | - | - | - |
| 1777372654 | 6.67° C | 51% | 1020.5 hPa | - | - | - | - |
| 1777372258 | 6.67° C | 51% | 1020.5 hPa | - | - | - | - |
| 1777371574 | 6.11° C | 52% | 1020.2 hPa | - | - | - | - |
| 1777371178 | 6.11° C | 52% | 1020.2 hPa | - | - | - | - |
| 1777370493 | 5.56° C | 52% | 1020.3 hPa | - | - | - | - |
| 1777370097 | 5.56° C | 52% | 1020.3 hPa | - | - | - | - |
| 1777369414 | 5.56° C | 52% | 1020.3 hPa | - | - | - | - |
* Rain since midnight (hover to see other rain measurements)
** Current wind speed in m/s (hover to see current wind gust speed)